| time (UTC) | temp F | wind direction | speed MPH | gust MPH | rain 1hr in | rain 24hr in | rain mn in | humidity % | barometer mb |
| 20260902105734 | 76 | 106 | 6.0 | 7.0 | 0.00 | 0.00 | 0.00 | 70 | 1021.2 |
| 20260902104733 | 76 | 82 | 5.0 | 9.0 | 0.00 | 0.00 | 0.00 | 70 | 1021.3 |
| 20260902103734 | 75 | 185 | 4.0 | 7.0 | 0.00 | 0.00 | 0.00 | 72 | 1021.3 |
| 20260902102734 | 75 | 148 | 4.0 | 7.0 | 0.00 | 0.00 | 0.00 | 72 | 1021.2 |
| 20260902101734 | 75 | 121 | 3.0 | 7.0 | 0.00 | 0.00 | 0.00 | 71 | 1020.8 |
| 20260902100734 | 75 | 160 | 3.0 | 8.0 | 0.00 | 0.00 | 0.00 | 70 | 1020.9 |
| 20260902100213 | 74 | 138 | 5.0 | 7.0 | 0.00 | 0.00 | 0.00 | 71 | 1021.0 |
| 20260902094733 | 74 | 175 | 3.0 | 7.0 | 0.00 | 0.00 | 0.00 | 72 | 1021.1 |
| 20260902093734 | 75 | 135 | 5.0 | 7.0 | 0.00 | 0.00 | 0.00 | 69 | 1020.9 |
| 20260902092734 | 76 | 247 | 1.0 | 3.0 | 0.00 | 0.00 | 0.00 | 66 | 1020.8 |
| 20260902091734 | 74 | 67 | 0.0 | 2.0 | 0.00 | 0.00 | 0.00 | 69 | 1020.8 |
| 20260902090734 | 72 | 40 | 1.0 | 2.0 | 0.00 | 0.00 | 0.00 | 72 | 1020.8 |
| 20260902085734 | 69 | 7 | 1.0 | 3.0 | 0.00 | 0.00 | 0.00 | 76 | 1020.8 |
| 20260902084733 | 69 | 11 | 3.0 | 3.0 | 0.00 | 0.00 | 0.00 | 76 | 1020.8 |
| 20260902083734 | 68 | 10 | 3.0 | 4.0 | 0.00 | 0.00 | 0.00 | 76 | 1021.0 |
| 20260902082734 | 67 | 10 | 2.0 | 4.0 | 0.00 | 0.00 | 0.00 | 74 | 1020.9 |
| 20260902081735 | 67 | 352 | 3.0 | 6.0 | 0.00 | 0.00 | 0.00 | 73 | 1020.8 |
| 20260902080734 | 66 | 341 | 3.0 | 6.0 | 0.00 | 0.00 | 0.00 | 72 | 1020.6 |
| 20260902080209 | 65 | 324 | 2.0 | 4.0 | 0.00 | 0.00 | 0.00 | 71 | 1020.7 |
| 20260902074710 | 65 | 340 | 3.0 | 6.0 | 0.00 | 0.00 | 0.00 | 69 | 1020.3 |
| 20260902073710 | 65 | 333 | 4.0 | 4.0 | 0.00 | 0.00 | 0.00 | 70 | 1020.4 |
| 20260902072710 | 64 | 349 | 3.0 | 6.0 | 0.00 | 0.00 | 0.00 | 69 | 1020.2 |
| 20260902071710 | 65 | 18 | 3.0 | 6.0 | 0.00 | 0.00 | 0.00 | 71 | 1020.2 |
| 20260902070710 | 65 | 337 | 3.0 | 6.0 | 0.00 | 0.00 | 0.00 | 74 | 1020.1 |
| 20260902070145 | 65 | 337 | 3.0 | 4.0 | 0.00 | 0.00 | 0.00 | 77 | 1020.3 |
| 20260902064710 | 64 | 333 | 4.0 | 6.0 | 0.00 | 0.00 | 0.00 | 78 | 1020.3 |
| 20260902063710 | 64 | 352 | 4.0 | 6.0 | 0.00 | 0.00 | 0.00 | 77 | 1020.1 |
| 20260902062711 | 64 | 328 | 3.0 | 7.0 | 0.00 | 0.00 | 0.00 | 75 | 1020.1 |
| 20260902062628 | 64 | 344 | 4.0 | 6.0 | 0.00 | 0.00 | 0.00 | 79 | 1020.0 |
| 20260902060713 | 65 | 348 | 4.0 | 4.0 | 0.00 | 0.00 | 0.00 | 81 | 1020.1 |
| 20260902055710 | 65 | 353 | 3.0 | 6.0 | 0.00 | 0.00 | 0.00 | 82 | 1019.9 |
| 20260902054710 | 64 | 343 | 4.0 | 6.0 | 0.00 | 0.00 | 0.00 | 83 | 1019.9 |
| 20260902053710 | 64 | 348 | 3.0 | 4.0 | 0.00 | 0.00 | 0.00 | 82 | 1019.9 |
| 20260902052710 | 64 | 334 | 3.0 | 4.0 | 0.00 | 0.00 | 0.00 | 81 | 1020.1 |
| 20260902051711 | 65 | 5 | 4.0 | 6.0 | 0.00 | 0.00 | 0.00 | 79 | 1019.9 |
| 20260902050710 | 65 | 359 | 2.0 | 6.0 | 0.00 | 0.00 | 0.00 | 78 | 1019.7 |
| 20260902045710 | 65 | 343 | 4.0 | 7.0 | 0.00 | 0.00 | 0.00 | 76 | 1019.7 |
| 20260902044710 | 65 | 351 | 4.0 | 8.0 | 0.00 | 0.00 | 0.00 | 77 | 1019.7 |
| 20260902043710 | 65 | 337 | 3.0 | 6.0 | 0.00 | 0.00 | 0.00 | 80 | 1019.7 |
| 20260902042710 | 64 | 337 | 4.0 | 6.0 | 0.00 | 0.00 | 0.00 | 80 | 1019.9 |
| 20260902042159 | 65 | 337 | 3.0 | 4.0 | 0.00 | 0.00 | 0.00 | 76 | 1019.9 |
| 20260902040712 | 65 | 349 | 3.0 | 6.0 | 0.00 | 0.00 | 0.00 | 77 | 1019.9 |
| 20260902035710 | 65 | 343 | 4.0 | 8.0 | 0.00 | 0.00 | 0.00 | 76 | 1019.9 |
| 20260902034710 | 65 | 352 | 4.0 | 8.0 | 0.00 | 0.00 | 0.00 | 77 | 1019.9 |
| 20260902033710 | 65 | 351 | 4.0 | 7.0 | 0.00 | 0.00 | 0.00 | 81 | 1019.9 |
| 20260902032709 | 65 | 332 | 4.0 | 6.0 | 0.00 | 0.00 | 0.00 | 85 | 1020.2 |
| 20260902031711 | 65 | 338 | 2.0 | 6.0 | 0.00 | 0.00 | 0.00 | 85 | 1020.1 |
| 20260902030711 | 65 | 342 | 2.0 | 4.0 | 0.00 | 0.00 | 0.00 | 83 | 1020.2 |
| 20260902025711 | 65 | 333 | 3.0 | 4.0 | 0.00 | 0.00 | 0.00 | 82 | 1020.4 |
| 20260902024710 | 65 | 354 | 2.0 | 4.0 | 0.00 | 0.00 | 0.00 | 82 | 1020.5 |
| 20260902023710 | 65 | 5 | 3.0 | 4.0 | 0.00 | 0.00 | 0.00 | 80 | 1020.7 |
| 20260902022710 | 64 | 345 | 4.0 | 6.0 | 0.00 | 0.00 | 0.00 | 80 | 1020.8 |
| 20260902021710 | 65 | 339 | 2.0 | 4.0 | 0.00 | 0.00 | 0.00 | 83 | 1020.6 |
| 20260902020711 | 65 | 338 | 3.0 | 6.0 | 0.00 | 0.00 | 0.00 | 83 | 1020.9 |
| 20260902015710 | 65 | 334 | 4.0 | 7.0 | 0.00 | 0.00 | 0.00 | 80 | 1021.0 |
| 20260902014710 | 65 | 320 | 4.0 | 7.0 | 0.00 | 0.00 | 0.00 | 81 | 1020.8 |
| 20260902014628 | 65 | 338 | 4.0 | 6.0 | 0.00 | 0.00 | 0.00 | 84 | 1020.9 |
| 20260902012710 | 65 | 350 | 1.0 | 7.0 | 0.00 | 0.00 | 0.00 | 84 | 1021.1 |
| 20260902012107 | 66 | 344 | 4.0 | 6.0 | 0.00 | 0.00 | 0.00 | 84 | 1021.2 |
| 20260902011737 | 66 | 341 | 2.0 | 4.0 | 0.00 | 0.00 | 0.00 | 82 | 1021.3 |
| 20260902005710 | 66 | 4 | 2.0 | 4.0 | 0.00 | 0.00 | 0.00 | 82 | 1021.3 |
| 20260902004710 | 65 | 334 | 2.0 | 4.0 | 0.00 | 0.00 | 0.00 | 83 | 1021.3 |
| 20260902004155 | 65 | 350 | 2.0 | 4.0 | 0.00 | 0.00 | 0.00 | 82 | 1021.6 |
| 20260902002711 | 65 | 346 | 2.0 | 4.0 | 0.00 | 0.00 | 0.00 | 81 | 1021.5 |
| 20260902001711 | 66 | 339 | 4.0 | 7.0 | 0.00 | 0.00 | 0.00 | 79 | 1021.3 |
| 20260902000711 | 66 | 341 | 4.0 | 8.0 | 0.00 | 0.00 | 0.00 | 81 | 1021.3 |
| 20260901235710 | 66 | 351 | 3.0 | 6.0 | 0.00 | 0.00 | 0.00 | 83 | 1021.6 |
| 20260901234711 | 66 | 324 | 3.0 | 0.0 | 0.00 | 0.00 | 0.00 | 84 | 1021.6 |
| 20260901233410 | 67 | 346 | 2.0 | 6.0 | 0.00 | 0.00 | 0.00 | 84 | 1021.7 |
| 20260901232409 | 67 | 342 | 3.0 | 4.0 | 0.00 | 0.00 | 0.00 | 84 | 1021.9 |
| 20260901231409 | 67 | 340 | 4.0 | 6.0 | 0.00 | 0.00 | 0.00 | 86 | 1021.8 |
| 20260901230413 | 67 | 349 | 2.0 | 4.0 | 0.00 | 0.00 | 0.00 | 86 | 1022.0 |
| 20260901225849 | 67 | 341 | 1.0 | 2.0 | 0.00 | 0.00 | 0.00 | 87 | 1022.2 |
| 20260901224408 | 68 | 22 | 0.0 | 1.0 | 0.00 | 0.00 | 0.00 | 89 | 1022.3 |
| 20260901223408 | 69 | 147 | 1.0 | 2.0 | 0.00 | 0.00 | 0.00 | 89 | 1022.2 |
| 20260901222411 | 69 | 145 | 1.0 | 2.0 | 0.00 | 0.00 | 0.00 | 87 | 1022.3 |
| 20260901221409 | 69 | 5 | 0.0 | 0.0 | 0.00 | 0.00 | 0.00 | 85 | 1022.3 |
| 20260901220409 | 69 | 22 | 1.0 | 2.0 | 0.00 | 0.00 | 0.00 | 84 | 1022.1 |
| 20260901215854 | 69 | 17 | 1.0 | 1.0 | 0.00 | 0.00 | 0.00 | 85 | 1022.3 |
| 20260901214409 | 69 | 315 | 1.0 | 2.0 | 0.00 | 0.00 | 0.00 | 86 | 1022.2 |
| 20260901213904 | 68 | 0 | 1.0 | 2.0 | 0.00 | 0.00 | 0.00 | 85 | 1022.3 |
| 20260901212409 | 68 | 346 | 1.0 | 3.0 | 0.00 | 0.00 | 0.00 | 86 | 1022.2 |
| 20260901211409 | 69 | 191 | 0.0 | 2.0 | 0.00 | 0.00 | 0.00 | 88 | 1022.0 |
| 20260901210408 | 68 | 350 | 1.0 | 2.0 | 0.00 | 0.00 | 0.00 | 87 | 1021.9 |
| 20260901205409 | 68 | 355 | 1.0 | 2.0 | 0.00 | 0.00 | 0.00 | 88 | 1021.9 |
| 20260901204852 | 68 | 356 | 0.0 | 1.0 | 0.00 | 0.00 | 0.00 | 89 | 1021.8 |
| 20260901203409 | 68 | 345 | 1.0 | 2.0 | 0.00 | 0.00 | 0.00 | 90 | 1021.7 |
| 20260901202409 | 68 | 27 | 0.0 | 2.0 | 0.00 | 0.00 | 0.00 | 91 | 1021.6 |
| 20260901201410 | 68 | 355 | 0.0 | 2.0 | 0.00 | 0.00 | 0.00 | 91 | 1021.0 |
| 20260901200851 | 69 | 332 | 0.0 | 1.0 | 0.00 | 0.00 | 0.00 | 90 | 1021.0 |
| 20260901195409 | 69 | 140 | 0.0 | 1.0 | 0.00 | 0.00 | 0.00 | 90 | 1021.0 |
| 20260901194410 | 69 | 194 | 0.0 | 1.0 | 0.00 | 0.00 | 0.00 | 90 | 1021.2 |
| 20260901193409 | 69 | 197 | 0.0 | 2.0 | 0.00 | 0.00 | 0.00 | 90 | 1021.0 |
| 20260901192849 | 70 | 158 | 1.0 | 2.0 | 0.00 | 0.00 | 0.00 | 89 | 1020.9 |
| 20260901191409 | 70 | 165 | 0.0 | 3.0 | 0.00 | 0.00 | 0.00 | 89 | 1020.9 |
| 20260901190845 | 71 | 165 | 1.0 | 4.0 | 0.00 | 0.00 | 0.00 | 88 | 1021.2 |
| 20260901185849 | 71 | 146 | 1.0 | 2.0 | 0.00 | 0.00 | 0.00 | 87 | 1021.0 |
| 20260901184410 | 71 | 127 | 2.0 | 3.0 | 0.00 | 0.00 | 0.00 | 86 | 1021.0 |
| 20260901183409 | 71 | 144 | 2.0 | 4.0 | 0.00 | 0.00 | 0.00 | 86 | 1021.0 |
| 20260901182409 | 72 | 144 | 2.0 | 2.0 | 0.00 | 0.00 | 0.00 | 85 | 1020.8 |
| 20260901181409 | 72 | 138 | 2.0 | 3.0 | 0.00 | 0.00 | 0.00 | 85 | 1021.0 |
| 20260901180410 | 72 | 171 | 1.0 | 3.0 | 0.00 | 0.00 | 0.00 | 85 | 1021.2 |
| 20260901175408 | 72 | 153 | 2.0 | 6.0 | 0.00 | 0.00 | 0.00 | 85 | 1021.3 |
| 20260901174409 | 72 | 108 | 2.0 | 4.0 | 0.00 | 0.00 | 0.00 | 85 | 1021.1 |
| 20260901173357 | 72 | 179 | 0.0 | 6.0 | 0.00 | 0.00 | 0.00 | 85 | 1021.5 |
| 20260901172351 | 72 | 117 | 1.0 | 6.0 | 0.00 | 0.00 | 0.00 | 85 | 1021.2 |
| 20260901171351 | 73 | 132 | 4.0 | 6.0 | 0.00 | 0.00 | 0.00 | 84 | 1021.1 |
| 20260901170351 | 73 | 113 | 3.0 | 6.0 | 0.00 | 0.00 | 0.00 | 84 | 1021.3 |
| 20260901165349 | 73 | 119 | 0.0 | 4.0 | 0.00 | 0.00 | 0.00 | 85 | 1021.2 |
| 20260901164350 | 73 | 182 | 3.0 | 7.0 | 0.00 | 0.00 | 0.00 | 84 | 1021.3 |
| 20260901163350 | 73 | 124 | 2.0 | 6.0 | 0.00 | 0.00 | 0.00 | 84 | 1021.2 |
| 20260901162350 | 73 | 192 | 2.0 | 6.0 | 0.00 | 0.00 | 0.00 | 85 | 1021.3 |
| 20260901161351 | 72 | 163 | 3.0 | 8.0 | 0.00 | 0.00 | 0.00 | 85 | 1021.5 |
| 20260901160350 | 73 | 194 | 2.0 | 4.0 | 0.00 | 0.00 | 0.00 | 84 | 1021.5 |
| 20260901155350 | 73 | 147 | 2.0 | 4.0 | 0.00 | 0.00 | 0.00 | 85 | 1021.3 |
| 20260901154349 | 72 | 134 | 2.0 | 6.0 | 0.00 | 0.00 | 0.00 | 84 | 1021.7 |
| 20260901153350 | 73 | 161 | 2.0 | 7.0 | 0.00 | 0.00 | 0.00 | 84 | 1021.6 |
| 20260901152844 | 73 | 199 | 2.0 | 3.0 | 0.00 | 0.00 | 0.00 | 83 | 1022.0 |
| 20260901151350 | 73 | 146 | 4.0 | 8.0 | 0.00 | 0.00 | 0.00 | 83 | 1022.1 |
| 20260901150346 | 74 | 292 | 1.0 | 8.0 | 0.00 | 0.00 | 0.00 | 81 | 1021.9 |
| 20260901150304 | 76 | 186 | 4.0 | 9.0 | 0.00 | 0.00 | 0.00 | 79 | 1022.2 |
| 20260901144346 | 76 | 164 | 5.0 | 7.0 | 0.00 | 0.00 | 0.00 | 79 | 1022.1 |
| 20260901143346 | 75 | 122 | 3.0 | 7.0 | 0.00 | 0.00 | 0.00 | 79 | 1022.0 |
| 20260901142346 | 75 | 145 | 3.0 | 7.0 | 0.00 | 0.00 | 0.00 | 80 | 1022.2 |
| 20260901141346 | 74 | 276 | 0.0 | 10.0 | 0.00 | 0.00 | 0.00 | 81 | 1022.2 |
| 20260901140346 | 74 | 135 | 6.0 | 9.0 | 0.00 | 0.00 | 0.00 | 81 | 1022.4 |
| 20260901135346 | 75 | 209 | 2.0 | 7.0 | 0.00 | 0.00 | 0.00 | 79 | 1022.3 |
| 20260901134346 | 76 | 178 | 3.0 | 9.0 | 0.00 | 0.00 | 0.00 | 78 | 1022.3 |
| 20260901133345 | 76 | 167 | 3.0 | 7.0 | 0.00 | 0.00 | 0.00 | 78 | 1022.4 |
| 20260901132346 | 76 | 104 | 3.0 | 9.0 | 0.00 | 0.00 | 0.00 | 78 | 1022.5 |
| 20260901131343 | 75 | 163 | 4.0 | 7.0 | 0.00 | 0.00 | 0.00 | 79 | 1022.4 |
| 20260901130342 | 75 | 129 | 6.0 | 9.0 | 0.00 | 0.00 | 0.00 | 79 | 1022.5 |
| 20260901125343 | 77 | 90 | 4.0 | 8.0 | 0.00 | 0.00 | 0.00 | 76 | 1022.4 |
| 20260901124343 | 75 | 183 | 4.0 | 10.0 | 0.00 | 0.00 | 0.00 | 79 | 1022.7 |
| 20260901123336 | 77 | 167 | 4.0 | 9.0 | 0.00 | 0.00 | 0.00 | 78 | 1022.5 |
| 20260901122336 | 75 | 102 | 2.0 | 7.0 | 0.00 | 0.00 | 0.00 | 80 | 1022.5 |
| 20260901121337 | 75 | 135 | 5.0 | 9.0 | 0.00 | 0.00 | 0.00 | 80 | 1022.4 |
| 20260901120824 | 75 | 131 | 4.0 | 7.0 | 0.00 | 0.00 | 0.00 | 81 | 1022.7 |
| 20260901115822 | 77 | 155 | 2.0 | 9.0 | 0.00 | 0.00 | 0.00 | 78 | 1022.7 |
| 20260901114336 | 75 | 137 | 2.0 | 9.0 | 0.00 | 0.00 | 0.00 | 78 | 1022.8 |
| 20260901113336 | 75 | 141 | 2.0 | 7.0 | 0.00 | 0.00 | 0.00 | 79 | 1022.7 |
| 20260901112336 | 75 | 152 | 4.0 | 6.0 | 0.00 | 0.00 | 0.00 | 80 | 1022.8 |
| 20260901111336 | 76 | 161 | 3.0 | 8.0 | 0.00 | 0.00 | 0.00 | 77 | 1022.9 |